FW7539 Weather Reports


Display with metric or nautical units.
time (UTC)temp
F
wind
direction
speed
MPH
gust
MPH
rain 1hr
in
rain 24hr
in
rain mn
in
humidity
%
barometer
mb
20260508172000 68 241 3.0 9.0 0.00 0.00 0.00 45 1013.5
20260508171459 68 221 4.0 11.0 0.00 0.00 0.00 44 1013.7
20260508170959 68 193 4.0 11.0 0.00 0.00 0.00 45 1013.8
20260508170459 68 183 3.0 10.0 0.00 0.00 0.00 47 1013.8
20260508170000 68 195 3.0 9.0 0.00 0.00 0.00 45 1013.9
20260508165459 68 197 3.0 7.0 0.00 0.00 0.00 45 1014.0
20260508164959 68 173 4.0 13.0 0.00 0.00 0.00 44 1014.2
20260508164500 68 169 4.0 13.0 0.00 0.00 0.00 45 1014.3
20260508164020 68 188 3.0 12.0 0.00 0.00 0.00 46 1014.4
20260508163459 68 174 4.0 14.0 0.00 0.00 0.00 48 1014.4
20260508162959 67 160 4.0 14.0 0.00 0.00 0.00 48 1014.5
20260508162459 68 162 4.0 12.0 0.00 0.00 0.00 47 1014.5
20260508161959 67 175 4.0 11.0 0.00 0.00 0.00 46 1014.7
20260508161459 67 195 3.0 11.0 0.00 0.00 0.00 47 1014.7
20260508161021 67 218 3.0 11.0 0.00 0.00 0.00 48 1014.7
20260508160459 66 255 4.0 11.0 0.00 0.00 0.00 47 1014.8
20260508160000 66 240 4.0 13.0 0.00 0.00 0.00 47 1014.8
20260508155500 66 192 3.0 13.0 0.00 0.00 0.00 47 1014.9
20260508154959 66 178 3.0 11.0 0.00 0.00 0.00 51 1015.0
20260508154500 65 215 4.0 16.0 0.00 0.00 0.00 51 1015.0
20260508154000 65 202 4.0 16.0 0.00 0.00 0.00 52 1015.1
20260508153520 65 182 3.0 12.0 0.00 0.00 0.00 50 1015.2
20260508153021 64 209 4.0 10.0 0.00 0.00 0.00 50 1015.3
20260508152459 64 190 4.0 12.0 0.00 0.00 0.00 49 1015.3
20260508152000 64 171 4.0 11.0 0.00 0.00 0.00 51 1015.4
20260508151459 64 204 3.0 11.0 0.00 0.00 0.00 51 1015.4
20260508151000 64 224 3.0 16.0 0.00 0.00 0.00 52 1015.5
20260508150500 64 233 3.0 16.0 0.00 0.00 0.00 51 1015.5
20260508145959 63 222 2.0 9.0 0.00 0.00 0.00 52 1015.5
20260508145500 62 230 3.0 11.0 0.00 0.00 0.00 55 1015.4
20260508144959 62 228 4.0 11.0 0.00 0.00 0.00 51 1015.5
20260508144459 62 205 3.0 9.0 0.00 0.00 0.00 51 1015.6
20260508144000 61 213 3.0 9.0 0.00 0.00 0.00 54 1015.6
20260508143520 61 220 3.0 13.0 0.00 0.00 0.00 52 1015.6
20260508143000 60 226 3.0 13.0 0.00 0.00 0.00 54 1015.6
20260508142459 60 225 3.0 11.0 0.00 0.00 0.00 56 1015.7
20260508142000 60 207 3.0 11.0 0.00 0.00 0.00 53 1015.8
20260508141459 59 218 3.0 11.0 0.00 0.00 0.00 54 1015.9
20260508141000 59 219 4.0 10.0 0.00 0.00 0.00 54 1015.9
20260508140459 59 229 3.0 10.0 0.00 0.00 0.00 54 1015.9
20260508135959 58 233 3.0 10.0 0.00 0.00 0.00 55 1015.9
20260508135500 58 228 3.0 10.0 0.00 0.00 0.00 56 1016.1
20260508134959 58 238 3.0 10.0 0.00 0.00 0.00 56 1016.0
20260508134459 57 222 3.0 13.0 0.00 0.00 0.00 56 1016.0
20260508134020 57 207 3.0 13.0 0.00 0.00 0.00 54 1016.0
20260508133500 57 216 3.0 14.0 0.00 0.00 0.00 54 1016.0
20260508133000 57 224 2.0 14.0 0.00 0.00 0.00 54 1016.0
20260508132459 57 214 2.0 7.0 0.00 0.00 0.00 57 1015.9
20260508132000 57 212 3.0 9.0 0.00 0.00 0.00 56 1016.0
20260508131520 56 201 3.0 9.0 0.00 0.00 0.00 56 1016.0
20260508131000 56 206 3.0 11.0 0.00 0.00 0.00 57 1016.0
20260508130459 56 224 3.0 11.0 0.00 0.00 0.00 57 1015.9
20260508130000 55 223 2.0 7.0 0.00 0.00 0.00 58 1016.0
20260508125459 55 217 3.0 7.0 0.00 0.00 0.00 58 1016.1
20260508124959 54 188 2.0 11.0 0.00 0.00 0.00 58 1015.9
20260508124500 54 171 2.0 11.0 0.00 0.00 0.00 59 1015.9
20260508124000 54 185 2.0 7.0 0.00 0.00 0.00 59 1015.9
20260508123500 53 198 2.0 7.0 0.00 0.00 0.00 59 1015.9
20260508123000 53 200 2.0 11.0 0.00 0.00 0.00 62 1015.8
20260508122459 52 198 2.0 11.0 0.00 0.00 0.00 60 1015.7
20260508122000 52 219 1.0 4.0 0.00 0.00 0.00 63 1015.8
20260508121459 52 211 1.0 4.0 0.00 0.00 0.00 62 1015.8
20260508121000 51 219 1.0 6.0 0.00 0.00 0.00 63 1015.8
20260508120459 51 229 2.0 6.0 0.00 0.00 0.00 64 1015.8
20260508120000 50 220 1.0 5.0 0.00 0.00 0.00 65 1015.8
20260508115459 50 226 1.0 2.0 0.00 0.00 0.00 66 1015.7
20260508115000 49 233 1.0 3.0 0.00 0.00 0.00 67 1015.7
20260508114459 49 220 0.0 3.0 0.00 0.00 0.00 66 1015.7
20260508114000 49 154 0.0 1.0 0.00 0.00 0.00 66 1015.7
20260508113500 49 155 0.0 2.0 0.00 0.00 0.00 66 1015.6
20260508113020 50 237 1.0 4.0 0.00 0.00 0.00 65 1015.6
20260508112500 50 266 1.0 4.0 0.00 0.00 0.00 64 1015.5
20260508112000 50 262 1.0 3.0 0.00 0.00 0.00 64 1015.4
20260508111459 50 229 1.0 3.0 0.00 0.00 0.00 63 1015.5
20260508111000 50 226 1.0 4.0 0.00 0.00 0.00 64 1015.4
20260508110500 50 234 1.0 4.0 0.00 0.00 0.00 64 1015.3
20260508105959 50 242 1.0 6.0 0.00 0.00 0.00 65 1015.3
20260508105500 50 244 1.0 6.0 0.00 0.00 0.00 64 1015.2
20260508105021 50 256 1.0 5.0 0.00 0.00 0.00 65 1015.2
20260508104500 49 253 0.0 5.0 0.00 0.00 0.00 64 1015.2
20260508103959 49 248 1.0 4.0 0.00 0.00 0.00 65 1015.3
20260508103500 49 239 1.0 4.0 0.00 0.00 0.00 65 1015.4
20260508103021 49 227 0.0 4.0 0.00 0.00 0.00 66 1015.3
20260508102521 49 220 1.0 4.0 0.00 0.00 0.00 67 1015.3
20260508102000 49 222 1.0 2.0 0.00 0.00 0.00 67 1015.2
20260508101459 49 232 0.0 2.0 0.00 0.00 0.00 67 1015.2
20260508101000 49 251 0.0 2.0 0.00 0.00 0.00 68 1015.3
20260508100500 49 253 1.0 3.0 0.00 0.00 0.00 66 1015.3
20260508095959 49 245 1.0 3.0 0.00 0.00 0.00 67 1015.3
20260508095500 48 249 0.0 2.0 0.00 0.00 0.00 68 1015.3
20260508095000 48 255 0.0 2.0 0.00 0.00 0.00 67 1015.3
20260508094500 48 250 0.0 2.0 0.00 0.00 0.00 68 1015.3
20260508094000 48 246 1.0 4.0 0.00 0.00 0.00 67 1015.3
20260508093500 48 243 1.0 4.0 0.00 0.00 0.00 68 1015.3
20260508092959 48 236 1.0 4.0 0.00 0.00 0.00 68 1015.3
20260508092459 48 235 1.0 4.0 0.00 0.00 0.00 68 1015.3
20260508091959 47 239 0.0 2.0 0.00 0.00 0.00 69 1015.2
20260508091459 47 238 0.0 2.0 0.00 0.00 0.00 69 1015.3
20260508091021 47 242 0.0 2.0 0.00 0.00 0.00 70 1015.3
20260508090521 47 247 1.0 3.0 0.00 0.00 0.00 70 1015.4
20260508085959 46 258 0.0 3.0 0.00 0.00 0.00 71 1015.4
20260508085500 46 277 0.0 2.0 0.00 0.00 0.00 72 1015.4
20260508085021 45 289 0.0 2.0 0.00 0.00 0.00 74 1015.4
20260508084500 45 290 0.0 2.0 0.00 0.00 0.00 74 1015.3
20260508083959 44 290 0.0 1.0 0.00 0.00 0.00 75 1015.2
20260508083500 44 290 0.0 1.0 0.00 0.00 0.00 76 1015.2
20260508083000 44 290 0.0 1.0 0.00 0.00 0.00 76 1015.3
20260508082500 44 290 0.0 1.0 0.00 0.00 0.00 75 1015.3
20260508081959 45 290 0.0 1.0 0.00 0.00 0.00 75 1015.2
20260508081459 45 290 0.0 1.0 0.00 0.00 0.00 75 1015.3
20260508080959 45 290 0.0 1.0 0.00 0.00 0.00 75 1015.2
20260508080459 45 290 0.0 2.0 0.00 0.00 0.00 74 1015.3
20260508080021 45 290 0.0 2.0 0.00 0.00 0.00 75 1015.3
20260508075521 45 290 0.0 1.0 0.00 0.00 0.00 75 1015.2
20260508074959 45 289 0.0 1.0 0.00 0.00 0.00 74 1015.3
20260508074501 45 280 0.0 2.0 0.00 0.00 0.00 74 1015.3
20260508074000 45 276 0.0 2.0 0.00 0.00 0.00 73 1015.3
20260508073521 45 277 0.0 1.0 0.00 0.00 0.00 73 1015.2
20260508072959 45 277 0.0 1.0 0.00 0.00 0.00 73 1015.2
20260508072500 46 277 0.0 1.0 0.00 0.00 0.00 71 1015.2
20260508072021 46 277 0.0 1.0 0.00 0.00 0.00 71 1015.2
20260508071500 46 277 0.0 1.0 0.00 0.00 0.00 72 1015.4
20260508071020 46 277 0.0 1.0 0.00 0.00 0.00 71 1015.4
20260508070500 46 277 0.0 1.0 0.00 0.00 0.00 71 1015.4
20260508070000 46 277 0.0 1.0 0.00 0.00 0.00 70 1015.5
20260508065521 46 277 0.0 1.0 0.00 0.00 0.00 70 1015.5
20260508065000 47 278 0.0 1.0 0.00 0.00 0.00 70 1015.5
20260508064500 47 278 0.0 2.0 0.00 0.00 0.00 68 1015.5
20260508064000 47 278 0.0 2.0 0.00 0.00 0.00 68 1015.6
20260508063500 47 278 0.0 1.0 0.00 0.00 0.00 68 1015.7
20260508063000 47 278 0.0 1.0 0.00 0.00 0.00 68 1015.8
20260508062500 47 278 0.0 1.0 0.00 0.00 0.00 67 1015.8
20260508062021 47 284 0.0 2.0 0.00 0.00 0.00 68 1015.9
20260508061500 47 288 0.0 2.0 0.00 0.00 0.00 66 1016.0
20260508060959 47 290 0.0 2.0 0.00 0.00 0.00 67 1016.0
20260508060500 47 290 0.0 1.0 0.00 0.00 0.00 67 1016.0
20260508060000 47 290 0.0 1.0 0.00 0.00 0.00 67 1016.0
20260508055500 47 290 0.0 2.0 0.00 0.00 0.00 66 1016.0
20260508055000 47 290 0.0 2.0 0.00 0.00 0.00 66 1016.0
20260508054521 48 290 0.0 2.0 0.00 0.00 0.00 65 1015.9
20260508053959 48 291 0.0 1.0 0.00 0.00 0.00 64 1015.9
20260508053500 48 286 0.0 3.0 0.00 0.00 0.00 64 1015.9
20260508053000 48 249 0.0 3.0 0.00 0.00 0.00 65 1016.0
20260508052500 48 229 0.0 3.0 0.00 0.00 0.00 64 1016.0
20260508052000 48 221 0.0 2.0 0.00 0.00 0.00 65 1016.0
20260508051521 48 221 0.0 1.0 0.00 0.00 0.00 67 1016.0
20260508051000 48 204 0.0 2.0 0.00 0.00 0.00 66 1015.9
20260508050500 48 199 0.0 2.0 0.00 0.00 0.00 66 1015.9
20260508050000 49 194 0.0 1.0 0.00 0.00 0.00 66 1015.9
20260508045500 49 194 0.0 2.0 0.00 0.00 0.00 65 1015.8
20260508045000 49 194 0.0 2.0 0.00 0.00 0.00 64 1015.7
20260508044500 50 193 0.0 1.0 0.00 0.00 0.00 62 1015.8
20260508044000 50 189 0.0 1.0 0.00 0.00 0.00 59 1015.9
20260508043500 50 152 0.0 2.0 0.00 0.00 0.00 60 1015.9
20260508043000 51 160 0.0 2.0 0.00 0.00 0.00 57 1015.9
20260508042500 51 192 0.0 2.0 0.00 0.00 0.00 57 1015.8
20260508042000 51 205 0.0 2.0 0.00 0.00 0.00 56 1015.9
20260508041500 51 249 0.0 2.0 0.00 0.00 0.00 57 1015.8
20260508041000 51 262 1.0 4.0 0.00 0.00 0.00 57 1015.8
20260508040500 50 238 1.0 4.0 0.00 0.00 0.00 58 1015.8
20260508040021 50 158 0.0 2.0 0.00 0.00 0.00 60 1015.7
20260508035500 50 141 0.0 2.0 0.00 0.00 0.00 60 1015.6
20260508035000 49 152 0.0 3.0 0.00 0.00 0.00 62 1015.6
20260508034500 49 175 0.0 3.0 0.00 0.00 0.00 63 1015.6
20260508034000 48 249 0.0 2.0 0.00 0.00 0.00 64 1015.7
20260508033500 48 249 0.0 2.0 0.00 0.00 0.00 64 1015.7
20260508033000 48 250 0.0 2.0 0.00 0.00 0.00 66 1015.8
20260508032500 47 253 0.0 2.0 0.00 0.00 0.00 69 1015.9
20260508032000 47 258 0.0 1.0 0.00 0.00 0.00 70 1015.8
20260508031500 47 258 0.0 1.0 0.00 0.00 0.00 69 1015.8
20260508031000 47 258 0.0 1.0 0.00 0.00 0.00 68 1015.8
20260508030500 47 258 0.0 1.0 0.00 0.00 0.00 70 1015.8
20260508030000 47 258 0.0 1.0 0.00 0.00 0.00 69 1015.7
20260508025500 47 258 0.0 1.0 0.00 0.00 0.00 67 1015.7
20260508025000 47 258 0.0 1.0 0.00 0.00 0.00 71 1015.6
20260508024500 47 258 0.0 1.0 0.00 0.00 0.00 72 1015.7
20260508024000 47 258 0.0 1.0 0.00 0.00 0.00 72 1015.7
20260508023500 47 258 0.0 1.0 0.00 0.00 0.00 71 1015.7
20260508023021 47 258 0.0 1.0 0.00 0.00 0.00 72 1015.7
20260508022500 47 258 0.0 1.0 0.00 0.00 0.00 70 1015.6
20260508022000 47 258 0.0 1.0 0.00 0.00 0.00 70 1015.6
20260508021501 47 258 0.0 1.0 0.00 0.00 0.00 71 1015.7
20260508021000 47 258 0.0 1.0 0.00 0.00 0.00 71 1015.7
20260508020500 47 258 0.0 1.0 0.00 0.00 0.00 72 1015.6
20260508020000 48 258 0.0 1.0 0.00 0.00 0.00 71 1015.6
20260508015500 48 0 0.0 0.0 0.00 0.00 0.00 68 1015.6
20260508015000 48 258 0.0 1.0 0.00 0.00 0.00 67 1015.6
20260508014500 48 258 0.0 1.0 0.00 0.00 0.00 66 1015.6
20260508014001 49 258 0.0 1.0 0.00 0.00 0.00 69 1015.7
20260508013501 49 258 0.0 1.0 0.00 0.00 0.00 67 1015.7
20260508013000 49 258 0.0 1.0 0.00 0.00 0.00 64 1015.7
20260508012500 50 258 0.0 1.0 0.00 0.00 0.00 63 1015.6
20260508012021 50 258 0.0 1.0 0.00 0.00 0.00 64 1015.6
20260508011500 51 258 0.0 1.0 0.00 0.00 0.00 61 1015.5
20260508011000 51 258 0.0 1.0 0.00 0.00 0.00 63 1015.5
20260508010522 52 258 0.0 1.0 0.00 0.00 0.00 62 1015.6
20260508010022 52 258 0.0 1.0 0.00 0.00 0.00 59 1015.5
20260508005501 53 258 0.0 1.0 0.00 0.00 0.00 59 1015.5
20260508005000 53 258 0.0 1.0 0.00 0.00 0.00 56 1015.5
20260508004500 54 258 0.0 1.0 0.00 0.00 0.00 58 1015.5
20260508004000 55 258 0.0 1.0 0.00 0.00 0.00 56 1015.4
20260508003500 55 258 0.0 2.0 0.00 0.00 0.00 51 1015.4
20260508003000 56 258 0.0 2.0 0.00 0.00 0.00 47 1015.3
20260508002521 56 0 0.0 0.0 0.00 0.00 0.00 46 1015.2
20260508002000 56 258 0.0 1.0 0.00 0.00 0.00 47 1015.3
20260508001500 57 258 0.0 2.0 0.00 0.00 0.00 45 1015.3
20260508001000 57 259 0.0 2.0 0.00 0.00 0.00 45 1015.3
20260508000500 58 247 0.0 3.0 0.00 0.00 0.00 44 1015.3
20260508000000 58 260 1.0 3.0 0.00 0.00 0.00 43 1015.3
20260507235500 58 272 1.0 2.0 0.00 0.00 0.00 43 1015.2
20260507235000 59 249 1.0 3.0 0.00 0.00 0.00 41 1015.2
20260507234500 59 243 1.0 3.0 0.00 0.00 0.00 40 1015.2
20260507234000 60 252 0.0 2.0 0.00 0.00 0.00 44 1015.2
20260507233500 60 251 1.0 4.0 0.00 0.00 0.00 41 1015.1
20260507233000 61 243 1.0 4.0 0.00 0.00 0.00 41 1015.1
20260507232500 61 246 1.0 4.0 0.00 0.00 0.00 38 1015.0
20260507232021 62 267 1.0 4.0 0.00 0.00 0.00 37 1015.0
20260507231500 61 256 1.0 4.0 0.00 0.00 0.00 38 1015.1
20260507231021 62 230 2.0 4.0 0.00 0.00 0.00 38 1015.0
20260507230521 62 250 2.0 3.0 0.00 0.00 0.00 37 1015.1
20260507230022 62 327 2.0 7.0 0.00 0.00 0.00 36 1015.1
20260507225500 62 334 2.0 7.0 0.00 0.00 0.00 38 1015.2
20260507225022 62 345 2.0 8.0 0.00 0.00 0.00 39 1015.1
20260507224501 62 287 2.0 8.0 0.00 0.00 0.00 37 1015.1
20260507224000 62 258 2.0 7.0 0.00 0.00 0.00 37 1015.0
20260507223500 62 4 2.0 8.0 0.00 0.00 0.00 42 1015.1
20260507223001 61 324 2.0 8.0 0.00 0.00 0.00 39 1015.1
20260507222500 61 252 2.0 8.0 0.00 0.00 0.00 39 1015.1
20260507222000 61 306 2.0 9.0 0.00 0.00 0.00 37 1015.1
20260507221521 62 359 3.0 9.0 0.00 0.00 0.00 39 1015.0
20260507221001 62 347 2.0 7.0 0.00 0.00 0.00 37 1015.1
20260507220500 62 355 2.0 8.0 0.00 0.00 0.00 39 1015.1
20260507220000 62 359 2.0 8.0 0.00 0.00 0.00 36 1015.2
20260507215500 62 326 2.0 5.0 0.00 0.00 0.00 37 1015.2
20260507215000 62 333 2.0 7.0 0.00 0.00 0.00 38 1015.2
20260507214501 62 3 3.0 11.0 0.00 0.00 0.00 40 1015.3
20260507214000 61 7 4.0 11.0 0.00 0.00 0.00 37 1015.4
20260507213500 62 357 3.0 10.0 0.00 0.00 0.00 37 1015.4
20260507213001 61 299 2.0 7.0 0.00 0.00 0.00 38 1015.3
20260507212500 61 299 2.0 9.0 0.00 0.00 0.00 38 1015.3
20260507212000 61 345 3.0 9.0 0.00 0.00 0.00 38 1015.3
20260507211501 62 330 3.0 9.0 0.00 0.00 0.00 37 1015.4
20260507211000 63 276 3.0 9.0 0.00 0.00 0.00 38 1015.3
20260507210500 63 298 2.0 7.0 0.00 0.00 0.00 37 1015.4
20260507210000 63 325 2.0 8.0 0.00 0.00 0.00 38 1015.3
20260507205500 63 345 2.0 8.0 0.00 0.00 0.00 39 1015.2
20260507205000 63 337 2.0 10.0 0.00 0.00 0.00 41 1015.2
20260507204501 63 330 3.0 10.0 0.00 0.00 0.00 37 1015.2
20260507204001 63 332 2.0 7.0 0.00 0.00 0.00 38 1015.3
20260507203500 63 296 3.0 9.0 0.00 0.00 0.00 37 1015.2
20260507203000 63 299 3.0 9.0 0.00 0.00 0.00 38 1015.2
20260507202501 63 345 3.0 8.0 0.00 0.00 0.00 39 1015.2
20260507202000 62 8 2.0 8.0 0.00 0.00 0.00 40 1015.1
20260507201500 62 348 2.0 6.0 0.00 0.00 0.00 40 1015.2
20260507201001 61 267 3.0 11.0 0.00 0.00 0.00 40 1015.2
20260507200522 61 273 3.0 11.0 0.00 0.00 0.00 39 1015.4
20260507200000 61 311 3.0 10.0 0.00 0.00 0.00 40 1015.3
20260507195521 61 317 3.0 9.0 0.00 0.00 0.00 40 1015.3
20260507195001 61 283 3.0 10.0 0.00 0.00 0.00 40 1015.2
20260507194500 61 252 3.0 10.0 0.00 0.00 0.00 39 1015.3
20260507194000 61 248 2.0 7.0 0.00 0.00 0.00 37 1015.4
20260507193501 61 271 3.0 10.0 0.00 0.00 0.00 38 1015.4
20260507193022 61 281 3.0 10.0 0.00 0.00 0.00 38 1015.5
20260507192500 61 296 3.0 8.0 0.00 0.00 0.00 39 1015.6
20260507192021 61 290 3.0 8.0 0.00 0.00 0.00 42 1015.5
20260507191521 60 296 3.0 8.0 0.00 0.00 0.00 41 1015.5
20260507191001 60 319 2.0 8.0 0.00 0.00 0.00 39 1015.6
20260507190501 60 354 3.0 10.0 0.00 0.00 0.00 40 1015.6
20260507190002 60 348 4.0 10.0 0.00 0.00 0.00 40 1015.7
20260507185501 60 326 3.0 9.0 0.00 0.00 0.00 40 1015.7
20260507185001 60 321 3.0 9.0 0.00 0.00 0.00 42 1015.6
20260507184500 60 300 3.0 9.0 0.00 0.00 0.00 42 1015.7
20260507184000 61 298 2.0 8.0 0.00 0.00 0.00 39 1015.7
20260507183500 61 352 2.0 10.0 0.00 0.00 0.00 42 1015.5
20260507183000 60 353 3.0 10.0 0.00 0.00 0.00 47 1015.7
20260507182501 60 325 3.0 9.0 0.00 0.00 0.00 44 1016.0
20260507182001 59 350 3.0 9.0 0.00 0.00 0.00 44 1015.9
20260507181500 59 308 3.0 14.0 0.00 0.00 0.00 41 1015.8
20260507181000 59 264 3.0 14.0 0.00 0.00 0.00 42 1015.9
20260507180500 60 291 2.0 8.0 0.00 0.00 0.00 40 1015.9
20260507180021 60 351 2.0 5.0 0.00 0.00 0.00 43 1015.9
20260507175501 59 356 3.0 10.0 0.00 0.00 0.00 43 1015.9
20260507175022 59 355 4.0 10.0 0.00 0.00 0.00 42 1016.1
20260507174521 58 323 3.0 10.0 0.00 0.00 0.00 42 1016.2
20260507174022 58 274 3.0 10.0 0.00 0.00 0.00 41 1016.2
20260507173501 58 279 3.0 11.0 0.00 0.00 0.00 43 1016.3
20260507173000 58 337 3.0 11.0 0.00 0.00 0.00 42 1016.2
20260507172500 59 341 3.0 9.0 0.00 0.00 0.00 43 1016.4